SAPLING GIGANTEUM (56213 NORAD) Tracking and Keplerian Element Data

This shows tracking and keplerian element data for the satellite.

Feedback or suggestion? Click here.




ElementValue
Catalog56213
NameSAPLING GIGANTEUM
Epoch Orbit2094
Epoch Day238.70761138
Epoch Year2023
RAAN133.0428
Inclination97.3913
Eccentricity0.0015792
Argument of Perigee113.4699
Mean Anonmoly246.8202
Mean Motion15.27478944
Decay Rate0.00018805
L11 56213U 23054AM 23238.70761138 .00018805 00000+0 69861-3 0 9996
L22 56213 97.3913 133.0428 0015792 113.4699 246.8202 15.27478944 20949



Live tracking and technical data element details for SAPLING GIGANTEUM (NORAD 56213). SAPLING GIGANTEUM can be tracked NOW for your location showing map with azimuth and elevation plus other details from your city location.







IsCatalogInMostPopularTable: catalog: 56213, numindb: 16
Update: records affected: 1



GetName: 56213 SAPLING GIGANTEUM

Hit Count: updated at: Thu, 28 Sep 2023 05:26:38 GMT